Regional Weather Roundup
Issued by NWS Upton, NY

Current Version | Previous Version | Graphics & Text | Print | Product List | Glossary Off
Versions: 1 2 3 4 5 6 7 8 9 10 11 12 13 14 15 16 17 18 19 20 21 22 23 24 25 26 27 28

000
ASUS41 KOKX 252208
RWROKX

REGIONAL WEATHER ROUNDUP
NATIONAL WEATHER SERVICE NEW YORK NY
600 PM EDT SAT MAR 25 2017

NOTE: "FAIR" INDICATES FEW OR NO CLOUDS BELOW 12,000 FEET WITH NO
SIGNIFICANT WEATHER AND/OR OBSTRUCTIONS TO VISIBILITY.

NYZ071-072-176-178-NJZ106-104-252300-
NEW YORK CITY METRO AREA

CITY           SKY/WX    TMP DP  RH WIND       PRES   REMARKS
Central Park   CLOUDY    49  39  68 NE5       30.30R
Wall St Helipt PTCLDY    50  39  66 NE10      30.28R
LaGuardia APRT CLOUDY    50  38  63 E8        30.27R
Kennedy INTL   CLOUDY    52  41  66 NE16      30.28R
Breezy Point     N/A     43 N/A N/A E9G15       N/A
Newark/Liberty CLOUDY    49  40  71 N15       30.28R
Teterboro      CLOUDY    48  39  71 VRB6      30.27R
$$

NYZ177-179-078>081-252300-
LONG ISLAND NEW YORK

CITY           SKY/WX    TMP DP  RH WIND       PRES   REMARKS
Jones Beach      N/A     43 N/A N/A E9G15       N/A
Matinecock PT    N/A     45 N/A N/A E16         N/A
Farmingdale    PTSUNNY   47  39  74 NE10G18   30.28R
MacArthur/ISP  CLOUDY    46  39  76 NE9       30.28S
Shirley        CLOUDY    46  38  73 VRB3      30.29S
Westhampton    CLOUDY    45  36  70 NE10      30.29F
East Hampton   CLOUDY    43  36  77 SE6       30.25F
Montauk          N/A     42  38  85 VRB5      30.26F
$$

NYZ052-065-067-252300-
HUDSON VALLEY

CITY           SKY/WX    TMP DP  RH WIND       PRES   REMARKS
White Plains   LGT RAIN  48  39  71 SE3       30.25F
Newburgh       CLOUDY    37  37 100 NE9       30.29S FOG     WCI  31
Montgomery     LGT RAIN  39  36  89 NE8       30.28R WCI  33
Poughkeepsie   PTSUNNY   37  35  92 N7        30.30R WCI  32
Albany         CLOUDY    38  32  79 N5        30.35R WCI  34
$$

NJZ001-105-106-008-010-013-015-019>022-104-252300-
NEW JERSEY

CITY           SKY/WX    TMP DP  RH WIND       PRES   REMARKS
Newark/Liberty CLOUDY    49  40  71 N15       30.28R
Teterboro      CLOUDY    48  39  71 VRB6      30.27R
Caldwell       CLOUDY    48  38  68 NE7       30.29R
Somerville     CLOUDY    53  41  63 NE8G20    30.25R
Linden         CLOUDY    50  39  67 NE14      30.28R
Sussex         CLOUDY    40  38  93 CALM      30.27F
Andover          N/A     42  37  82 CALM      30.26S
Trenton        CLOUDY    57  44  62 E16       30.23R
Millville      CLOUDY    76  54  46 N6        30.15R
Atlantic City  CLOUDY    58  43  57 NE16G25   30.19R
Wrightstown    LGT RAIN  52  49  90 E14       30.21R
Toms River     LGT RAIN  46  44  93 NE9       30.27R
Belmar         CLOUDY    44  40  85 E12G20    30.28R
$$

PAZ047>061-062-071-252300-
EASTERN PENNSYLVANIA

CITY           SKY/WX    TMP DP  RH WIND       PRES   REMARKS
Philadelphia   LGT RAIN  62  57  83 NE13      30.18R
Allentown      CLOUDY    56  40  55 E15       30.23R
Scranton       CLOUDY    44  43  96 NW5       30.24S
$$

CTZ002-004>006-009-010-012-RIZ004-006-007-MAZ004-011-015-252300-
SOUTHERN NEW ENGLAND
 IN CT

CITY           SKY/WX    TMP DP  RH WIND       PRES   REMARKS
Bradley INTL   CLOUDY    38  36  92 N8        30.31R WCI  32
Hartford       CLOUDY    39  37  92 N8        30.31R FOG     WCI  33
Danbury        LGT RAIN  43  40  89 NE6       30.29R
Wtrbury/Oxford CLOUDY    39  34  81 NE8       30.28R WCI  34
Bridgeport     LGT RAIN  43  38  82 E5        30.25F
Meriden        CLOUDY    42  38  85 N8        30.30R
New Haven      CLOUDY    42  39  89 CALM      30.26F
Chester        NOT AVBL
Groton         LGT RAIN  43  37  79 E7        30.26F
Wilimantic     CLOUDY    42  39  89 CALM      30.29R

 IN RI

CITY           SKY/WX    TMP DP  RH WIND       PRES   REMARKS
Providence     CLOUDY    40  36  86 NE7       30.29R
Block Island   CLOUDY    40  37  89 E7        30.26F
Westerly       LGT RAIN  43  38  82 SE8       30.25F
 IN MA

CITY           SKY/WX    TMP DP  RH WIND       PRES   REMARKS
Boston         CLOUDY    37  34  89 N8        30.32R WCI  31
Worcester      CLOUDY    35  33  92 N7        30.27S WCI  29
Westfield      CLOUDY    37  34  89 N9        30.31R WCI  30
Provincetown   CLOUDY    37  35  92 N13       30.32R WCI  29
Nantucket      CLOUDY    39  32  76 VRB6      30.24F WCI  35
$$

ANZ330-335-338-340-345-350-353-355-252300-
COASTAL MARINE OBSERVATIONS


STATION/POSITION TIME  SKY/WX   TEMP    WIND        PRES    VSBY  WAVE
                                AIR SEA DIR/SP/G                  HT/PER
                 (UTC)          (F)     (DEG/KT/KT) (MB)    (MI)  (FT/S)
NY HARB ENTRANCE 2050            44 42   70/ 16/ 19 1023.9          4/ 8
20 S FIRE ISLAND 2150            42 40   70/ 16/ 17 1024.7          5/ 8
GREAT SOUTH BAY  NOT AVBL
23 SSW MONTAUK P 2050            42 43              1025.2          5/ 8
15 E BARNEGAT LI 2130               44                N/A           5/ 7
HUDSON CANYON    2050            47 46   10/  2/  4 1022.9          6/ 8
KINGS POINT      2130            48 39              1025.1
EXECUTION ROCKS  NOT AVBL
CENTRAL LI SOUND 2130            41     140/  6/ 12   N/A           0
EASTERN LI SOUND NOT AVBL
ROBBINS REEF     2130            49      10/ 15/ 19 1025.1
$$


>>>>>>>>>>>>>>>>>>>>>>>>>>>> KEY <<<<<<<<<<<<<<<<<<<<<<<<<<<
>                                                          <
>     SKY/WX - Sky Condition/Present Weather               <
>     TMP    - Temperature in Fahrenheit                   <
>     DP     - Dew Point in Fahrenheit                     <
>     RH     - Relative Humidity in Percent                <
>     WIND   - Direction (from) and Speed in MPH           <
>     PRES   - Mean Sea Level Pressure (inches of Hg)      <
>     WCI    - Wind Chill Index                            <
>     VSB    - VISIBILITY IN MILES                         <
>     HX     - HEAT INDEX                                  <
>     TC     - TEMPERATURE IN CELSIUS                      <
>     VRB    - VARIABLE WIND DIRECTION                     <
>                                                          <
>>>>>>>>>>>>>>>>>>>>>>>>>>>> KEY <<<<<<<<<<<<<<<<<<<<<<<<<<<




USA.gov is the U.S. government's official web portal to all federal, state and local government web resources and services.